Location: Waning Moon II Observatory
(30.3730°N, 89.7620°W)
Time: 16:43:09
(UTC-05:00)

Daily predictions for brighter satellites

Satellite Brightness Start Highest point End
(mag) Time Altitude Azimuth Time Altitude Azimuth Time Altitude Azimuth
Cosmos 2278 Rocket 2.9 20:12:30 10° SSE 20:17:24 31° ESE 20:22:20 10° NE
Cosmos 2181 Rocket 4.1 20:11:09 10° N 20:17:36 87° E 20:23:54 10° S
FENGYUN 3A 4.0 20:15:17 10° SSE 20:20:26 48° ENE 20:25:36 10° N
COSMOS 2406 3.5 20:15:46 10° N 20:21:20 50° ENE 20:26:48 10° SE
CZ-4B DEB 2.8 20:18:43 10° SSE 20:21:58 85° E 20:25:15 10° N
USA 215 3.7 20:16:44 10° SSE 20:23:13 65° SW 20:29:44 10° NW
Cosmos 2074 Rocket 4.0 20:17:06 10° S 20:23:18 66° E 20:29:30 10° NNE
Cosmos 1844 3.8 20:17:48 10° S 20:23:25 60° ESE 20:29:06 10° NNE
Spot 2 Rocket 4.4 20:19:47 10° S 20:24:44 53° W 20:29:45 10° NNW
ALOS 2.4 20:21:00 10° SSE 20:25:33 55° ENE 20:30:06 10° N
SL-27 R/B 3.5 20:22:33 10° N 20:25:46 30° ENE 20:28:55 10° SE
ERBS 2.4 20:28:18 10° NW 20:31:47 82° SW 20:35:13 10° SSE
SEDSat Delta rocket 3.2 20:29:57 10° WSW 20:34:32 53° SSE 20:38:39 10° E
OAO 1 Rocket 4.5 20:29:24 10° WSW 20:34:43 88° NNW 20:40:03 10° ENE
USA 186 2.0 20:32:43 10° SSE 20:35:43 50° ENE 20:38:53 10° N
Resurs 01 Rocket 3.4 20:34:25 10° SSW 20:38:23 33° W 20:42:21 10° NW
OAO 3 Rocket 3.2 20:36:50 10° WSW 20:41:48 78° SSE 20:46:46 10° ENE
Sich 1 Rocket 3.8 20:38:15 10° S 20:42:41 53° E 20:47:09 10° NNE
Cosmos 2084 4.0 20:39:54 10° SW 20:43:44 56° WNW 20:47:31 10° NNE
TIMED 4.4 20:40:27 10° SSW 20:44:47 80° ESE 20:49:10 10° NNE
APEX 4.3 20:43:49 10° SSE 20:46:48 25° E 20:50:25 10° NE
ERS-1 Rocket 3.7 20:42:56 12° SE 20:47:01 34° ENE 20:51:33 10° N
Coronas F rocket 3.9 20:48:19 10° SW 20:50:31 23° W 20:52:43 10° NNW
CZ-2D R/B 3.6 20:48:30 10° S 20:52:16 65° W 20:56:04 10° NNW
COSMOS 2487 4.3 20:51:28 10° NNE 20:53:49 16° ENE 20:54:41 15° E
Cosmos 2297 4.4 20:49:55 10° SSE 20:54:53 32° ESE 20:59:53 10° NE
Cosmos 407 Rocket 3.6 20:52:46 10° N 20:58:00 60° ENE 21:02:12 16° SSE
Cosmos 1908 Rocket 3.5 20:57:19 10° S 21:01:40 69° E 21:06:05 10° NNE
Cosmos 1733 Rocket 4.2 20:57:32 10° SSW 21:01:45 45° W 21:05:58 10° N
Meteosat 1 Rocket2 3.9 20:57:15 10° W 21:02:18 72° S 21:08:04 18° ESE
Meteor 1-10 Rocket 4.2 20:57:07 10° N 21:02:54 90° ENE 21:08:33 10° S
ISS -0.1 21:01:16 10° WNW 21:03:16 15° NW 21:05:15 10° N
EO 1 Delta rocket 4.3 21:00:33 10° NNE 21:05:47 46° E 21:09:33 15° SSE
Cosmos 1452 Rocket 3.8 21:01:00 10° SSW 21:06:14 72° WNW 21:11:30 10° NNE
Cosmos 1378 Rocket 4.1 21:02:59 10° NNE 21:07:01 37° E 21:08:46 26° SE
Cosmos 1862 3.2 21:04:39 10° S 21:08:40 70° E 21:12:44 10° N
Cosmos 2341 Rocket 4.1 21:04:09 10° S 21:10:17 58° E 21:16:25 10° NNE
Cosmos 1606 2.9 21:06:28 10° N 21:10:19 52° E 21:12:07 28° SSE
Cosmos 1184 Rocket 2.8 21:13:02 28° SSE 21:14:35 60° E 21:17:52 10° NNE
Cosmos 1190 Rocket 4.2 21:09:30 10° NNW 21:14:41 71° WSW 21:19:06 14° S
SPOT 5 4.0 21:14:02 24° ESE 21:16:03 32° ENE 21:20:46 10° N
Cosmos 1238 Rocket 3.3 21:12:44 10° NNE 21:16:09 38° E 21:17:07 33° ESE
Nimbus 7 Rocket 4.4 21:11:14 10° NNE 21:17:08 61° ESE 21:23:04 10° S
Cosmos 962 Rocket 4.4 21:12:12 10° S 21:18:16 67° E 21:24:25 10° NNE
CENTAUR R/B 4.0 21:12:01 10° NW 21:19:40 47° WSW 21:27:30 10° S
Abrixas 2.9 21:19:12 10° WSW 21:22:12 63° NW 21:24:56 12° NE
deb Chang Zheng 4 3.5 21:18:38 10° NNE 21:23:04 82° ESE 21:27:32 10° S
Meteor 1-27 Rocket 3.6 21:23:10 10° N 21:28:44 88° E 21:32:18 23° S
H-2A R/B 2.1 21:29:41 42° SE 21:30:55 61° ENE 21:35:05 10° N
Cosmos 1242 Rocket 3.7 21:28:36 10° NNE 21:31:23 30° ENE 21:31:23 30° ENE
YAOGAN 6 4.2 21:33:23 21° NE 21:33:23 21° NE 21:35:20 10° NNE
Cosmos 2154 Rocket 4.3 21:27:29 10° SSW 21:33:39 67° W 21:39:50 10° N
Cosmos 1295 Rocket 4.5 21:29:35 19° S 21:34:13 65° E 21:40:24 10° NNE
Cosmos 1408 3.2 21:31:52 15° SSW 21:34:43 55° W 21:38:19 10° N
Intelsat 3F5 C 4.1 21:32:09 10° W 21:35:12 69° WSW 21:35:12 69° WSW
ATLAS 5 CENTAUR R/B 3.8 21:30:22 10° NW 21:35:55 34° WSW 21:41:21 11° S
Centaur AC-119 4.1 21:41:46 10° WSW 21:41:52 11° WSW 21:41:52 11° WSW
Cosmos 1850 Rocket 4.5 21:39:02 10° N 21:44:05 42° ENE 21:44:49 40° E
Cosmos 1174 3.9 21:42:09 10° NW 21:44:46 46° W 21:44:46 46° W
Cosmos 676 Rocket 4.3 21:40:39 10° NNW 21:45:47 62° WSW 21:48:18 30° S
Cosmos 489 Rocket 4.4 21:40:50 10° N 21:47:00 69° ENE 21:49:05 43° SE
COS B Rocket 3.7 21:43:45 10° N 21:47:25 53° W 21:48:09 43° SW
Cosmos 1954 Rocket 4.0 21:43:47 10° NNW 21:49:01 78° WSW 21:50:51 41° S
Okean 3 3.4 21:44:58 10° N 21:49:13 82° W 21:49:57 60° S
Timation 1 Rocket 4.5 21:48:54 44° SE 21:50:02 50° ESE 21:55:49 10° NNE
Cosmos 1825 4.0 21:48:43 10° SW 21:52:07 31° W 21:55:32 10° NNW
Cosmos 1939 Rocket 3.5 21:51:52 38° SW 21:52:50 48° W 21:56:37 10° NNW
MetOp-A 4.1 21:52:12 52° SE 21:53:16 65° ENE 21:58:34 10° N
Atlas Centaur 2 2.4 21:52:52 10° W 21:55:08 29° WSW 21:55:08 29° WSW
GPS 2-05 Rocket1 4.2 21:53:32 10° WNW 21:56:59 35° N 21:57:14 35° NNE
Cosmos 2366 rocket 4.0 21:57:17 49° SE 21:58:38 59° E 22:04:49 10° NNE
Cosmos 1833 Rocket 3.7 21:56:18 10° N 22:01:13 30° ENE 22:01:16 30° ENE
Cosmos 2278 Rocket 4.2 21:56:37 10° WSW 22:01:23 27° WNW 22:06:11 10° N
BREEZE-M DEB (TANK) 3.7 22:01:49 10° WNW 22:04:01 41° WSW 22:04:01 41° WSW
Cosmos 1023 Rocket 4.3 21:59:42 10° NNW 22:04:50 84° WSW 22:05:30 68° S
Cosmos 1741 Rocket 3.9 22:00:31 10° N 22:05:43 67° ENE 22:05:52 67° E
Meteor 1-25 Rocket 4.4 22:06:56 55° E 22:06:56 55° E 22:12:34 10° NNE
Okean 2 Rocket 4.3 22:04:53 22° SW 22:07:16 40° W 22:11:26 10° N
Cosmos 1110 Rocket 4.2 22:13:24 57° NE 22:13:24 57° NE 22:17:43 10° NNE
CZ-4 R/B 4.4 22:08:09 10° NNE 22:11:24 43° NE 22:11:24 43° NE
Envisat 4.0 22:12:11 30° SW 22:13:58 41° W 22:18:46 10° NNW
SEDSat Delta rocket 3.9 22:16:15 10° W 22:19:11 41° W 22:19:11 41° W
Cosmos 614 Rocket 4.0 22:20:14 10° NNW 22:24:53 74° NW 22:24:53 74° NW
OAO 3 Rocket 3.8 22:20:43 10° W 22:25:33 52° N 22:25:52 51° N
Cosmos 2082 Rocket 2.2 22:21:29 10° NNW 22:26:48 67° NE 22:26:48 67° NE
Cosmos 2218 Rocket 4.3 22:26:40 39° SSW 22:29:05 64° W 22:35:27 10° N
Meteor 2-19 Rocket 4.3 22:33:07 85° E 22:33:07 85° E 22:39:14 10° N
Meteor 1-18 Rocket 4.4 22:28:12 10° N 22:33:37 69° NE 22:33:37 69° NE
Terra 3.4 22:40:06 26° NNE 22:40:06 26° NNE 22:42:30 10° N
NOAA 11 4.4 22:43:03 69° WNW 22:43:03 69° WNW 22:48:03 10° NNW
USA 234 3.6 22:39:15 10° NE 22:43:56 49° ENE 22:43:56 49° ENE
Cosmos 1727 Rocket 4.0 22:42:58 10° N 22:48:47 78° NW 22:48:47 78° NW
Meteor 2-8 Rocket 4.5 22:43:59 10° N 22:49:45 76° NW 22:49:45 76° NW
H-2A R/B 2.9 22:51:51 45° NNE 22:51:51 45° NNE 22:55:35 10° N
Cosmos 2369 Rocket 4.1 23:11:23 21° NNE 23:11:23 21° NNE 23:13:10 10° NNE
ARGOS 4.4 23:09:20 36° WNW 23:09:20 36° WNW 23:13:23 10° NNW
Lacrosse 5 3.5 23:10:52 31° N 23:10:52 31° N 23:14:06 10° NNE
